TimeEDT,TemperatureF,Dew PointF,Humidity,Sea Level PressureIn,VisibilityMPH,Wind Direction,Wind SpeedMPH,Gust SpeedMPH,PrecipitationIn,Events,Conditions,WindDirDegrees,DateUTC
12:15 AM,78.8,73.4,83,30.27,10.0,South,6.9,-,N/A,,Clear,190,2013-07-05 04:15:00
12:35 AM,78.8,73.4,83,30.27,10.0,South,5.8,-,N/A,,Clear,190,2013-07-05 04:35:00
12:55 AM,78.8,73.4,83,30.27,10.0,South,5.8,-,N/A,,Clear,190,2013-07-05 04:55:00
1:15 AM,78.8,73.4,83,30.27,10.0,South,4.6,-,N/A,,Clear,190,2013-07-05 05:15:00
1:35 AM,78.8,73.4,83,30.27,10.0,SSW,5.8,-,N/A,,Clear,200,2013-07-05 05:35:00
1:55 AM,77.0,73.4,89,30.27,10.0,South,5.8,-,N/A,,Clear,190,2013-07-05 05:55:00
2:15 AM,77.0,73.4,89,30.27,10.0,South,4.6,-,N/A,,Clear,190,2013-07-05 06:15:00
2:35 AM,77.0,73.4,89,30.27,10.0,South,4.6,-,N/A,,Clear,180,2013-07-05 06:35:00
2:55 AM,77.0,73.4,89,30.27,10.0,South,4.6,-,N/A,,Clear,180,2013-07-05 06:55:00
3:15 AM,75.2,73.4,94,30.27,10.0,South,3.5,-,N/A,,Clear,180,2013-07-05 07:15:00
3:35 AM,75.2,73.4,94,30.27,10.0,South,4.6,-,N/A,,Clear,170,2013-07-05 07:35:00
3:55 AM,75.2,73.4,94,30.27,10.0,South,3.5,-,N/A,,Clear,180,2013-07-05 07:55:00
4:15 AM,75.2,73.4,94,30.27,7.0,South,4.6,-,N/A,,Clear,180,2013-07-05 08:15:00
4:35 AM,75.2,73.4,94,30.26,10.0,South,5.8,-,N/A,,Clear,190,2013-07-05 08:35:00
4:55 AM,77.0,73.4,89,30.26,10.0,SSW,5.8,-,N/A,,Clear,200,2013-07-05 08:55:00
5:16 AM,77.0,73.4,89,30.26,10.0,SSW,5.8,-,N/A,,Clear,200,2013-07-05 09:16:00
5:35 AM,75.2,73.4,94,30.27,10.0,SSW,4.6,-,N/A,,Clear,200,2013-07-05 09:35:00
5:55 AM,75.2,73.4,94,30.27,10.0,South,3.5,-,N/A,,Clear,190,2013-07-05 09:55:00
6:15 AM,75.2,73.4,94,30.27,10.0,Calm,Calm,-,N/A,,Clear,0,2013-07-05 10:15:00
6:35 AM,75.2,73.4,94,30.27,10.0,Calm,Calm,-,N/A,,Clear,0,2013-07-05 10:35:00
6:55 AM,77.0,73.4,89,30.27,10.0,South,4.6,-,N/A,,Clear,180,2013-07-05 10:55:00
7:15 AM,78.8,75.2,89,30.28,10.0,South,4.6,-,N/A,,Clear,190,2013-07-05 11:15:00
7:36 AM,80.6,75.2,84,30.28,10.0,SSW,5.8,-,N/A,,Clear,210,2013-07-05 11:36:00
7:55 AM,80.6,75.2,84,30.29,10.0,SW,6.9,-,N/A,,Clear,230,2013-07-05 11:55:00
8:15 AM,82.4,75.2,79,30.29,10.0,SW,9.2,-,N/A,,Clear,220,2013-07-05 12:15:00
8:35 AM,82.4,73.4,74,30.29,10.0,WSW,10.4,-,N/A,,Clear,240,2013-07-05 12:35:00
8:55 AM,84.2,73.4,70,30.29,10.0,SW,6.9,-,N/A,,Clear,230,2013-07-05 12:55:00
9:15 AM,84.2,73.4,70,30.29,10.0,WSW,10.4,-,N/A,,Scattered Clouds,240,2013-07-05 13:15:00
9:35 AM,84.2,71.6,66,30.28,10.0,SW,10.4,-,N/A,,Clear,230,2013-07-05 13:35:00
9:56 AM,84.2,71.6,66,30.28,10.0,WSW,10.4,-,N/A,,Clear,240,2013-07-05 13:56:00
10:15 AM,86.0,71.6,62,30.28,10.0,SW,9.2,-,N/A,,Clear,220,2013-07-05 14:15:00
10:35 AM,87.8,71.6,58,30.28,10.0,SW,10.4,-,N/A,,Clear,220,2013-07-05 14:35:00
10:55 AM,87.8,71.6,58,30.28,10.0,SW,10.4,-,N/A,,Clear,230,2013-07-05 14:55:00
11:15 AM,87.8,71.6,58,30.28,10.0,SW,11.5,-,N/A,,Clear,230,2013-07-05 15:15:00
11:35 AM,87.8,71.6,58,30.28,10.0,SSW,10.4,-,N/A,,Clear,210,2013-07-05 15:35:00
11:55 AM,87.8,69.8,55,30.28,10.0,WSW,10.4,-,N/A,,Clear,240,2013-07-05 15:55:00
12:16 PM,89.6,69.8,52,30.28,10.0,WSW,11.5,-,N/A,,Clear,240,2013-07-05 16:16:00
12:35 PM,89.6,69.8,52,30.28,10.0,WSW,11.5,-,N/A,,Clear,240,2013-07-05 16:35:00
12:55 PM,89.6,71.6,55,30.27,10.0,West,10.4,16.1,N/A,,Clear,260,2013-07-05 16:55:00
1:15 PM,89.6,71.6,55,30.27,10.0,WSW,10.4,-,N/A,,Scattered Clouds,240,2013-07-05 17:15:00
1:35 PM,89.6,69.8,52,30.26,10.0,SW,10.4,-,N/A,,Clear,220,2013-07-05 17:35:00
1:55 PM,89.6,69.8,52,30.26,10.0,WSW,10.4,18.4,N/A,,Clear,250,2013-07-05 17:55:00
2:18 PM,91.4,69.8,49,30.25,10.0,SW,11.5,17.3,N/A,,Clear,230,2013-07-05 18:18:00
2:35 PM,91.4,68.0,46,30.25,10.0,WSW,12.7,18.4,N/A,,Clear,240,2013-07-05 18:35:00
2:55 PM,-9999,-9999,N/A,-9999,10.0,SW,10.4,16.1,N/A,,Unknown,220,2013-07-05 18:55:00
3:15 PM,91.4,69.8,49,30.24,10.0,SW,11.5,-,N/A,,Clear,230,2013-07-05 19:15:00
3:35 PM,91.4,75.2,59,30.23,10.0,SSE,6.9,-,N/A,,Clear,150,2013-07-05 19:35:00
3:56 PM,89.6,75.2,62,30.23,10.0,SSW,8.1,-,N/A,,Scattered Clouds,200,2013-07-05 19:56:00
4:15 PM,89.6,75.2,62,30.22,10.0,South,10.4,-,N/A,,Clear,190,2013-07-05 20:15:00
4:35 PM,87.8,75.2,66,30.22,10.0,South,8.1,-,N/A,,Clear,180,2013-07-05 20:35:00
4:55 PM,89.6,75.2,62,30.22,10.0,South,9.2,-,N/A,,Scattered Clouds,180,2013-07-05 20:55:00
5:15 PM,87.8,73.4,62,30.21,10.0,SSE,10.4,16.1,N/A,,Clear,160,2013-07-05 21:15:00
5:35 PM,87.8,73.4,62,30.20,10.0,South,11.5,17.3,N/A,,Clear,180,2013-07-05 21:35:00
5:55 PM,87.8,73.4,62,30.20,10.0,South,9.2,16.1,N/A,,Clear,190,2013-07-05 21:55:00
6:15 PM,87.8,73.4,62,30.19,10.0,South,8.1,-,N/A,,Clear,170,2013-07-05 22:15:00
6:35 PM,86.0,73.4,66,30.19,10.0,South,13.8,19.6,N/A,,Clear,180,2013-07-05 22:35:00
6:56 PM,84.2,73.4,70,30.19,10.0,South,8.1,18.4,N/A,,Clear,170,2013-07-05 22:56:00
7:15 PM,84.2,73.4,70,30.19,10.0,South,10.4,17.3,N/A,,Clear,170,2013-07-05 23:15:00
7:35 PM,84.2,75.2,74,30.19,10.0,South,8.1,-,N/A,,Clear,170,2013-07-05 23:35:00
7:57 PM,82.4,75.2,79,30.19,10.0,South,8.1,-,N/A,,Clear,180,2013-07-05 23:57:00
8:15 PM,82.4,73.4,74,30.20,10.0,South,8.1,-,N/A,,Clear,170,2013-07-06 00:15:00
8:35 PM,80.6,73.4,79,30.20,10.0,South,5.8,-,N/A,,Clear,180,2013-07-06 00:35:00
8:55 PM,80.6,73.4,79,30.20,10.0,SSE,5.8,-,N/A,,Clear,160,2013-07-06 00:55:00
9:17 PM,80.6,73.4,79,30.20,10.0,SSE,5.8,-,N/A,,Clear,160,2013-07-06 01:17:00
9:35 PM,80.6,73.4,79,30.21,10.0,South,5.8,-,N/A,,Clear,170,2013-07-06 01:35:00
9:55 PM,80.6,73.4,79,30.22,10.0,South,5.8,-,N/A,,Clear,170,2013-07-06 01:55:00
10:16 PM,80.6,73.4,79,30.22,10.0,South,6.9,-,N/A,,Scattered Clouds,170,2013-07-06 02:16:00
10:35 PM,80.6,73.4,79,30.22,10.0,South,5.8,-,N/A,,Scattered Clouds,170,2013-07-06 02:35:00
10:55 PM,80.6,75.2,84,30.21,10.0,South,5.8,-,N/A,,Scattered Clouds,180,2013-07-06 02:55:00
11:17 PM,80.6,75.2,84,30.22,10.0,South,6.9,-,N/A,,Scattered Clouds,190,2013-07-06 03:17:00
11:35 PM,80.6,75.2,84,30.22,10.0,South,5.8,-,N/A,,Scattered Clouds,190,2013-07-06 03:35:00
11:55 PM,80.6,73.4,79,30.22,10.0,SSW,6.9,-,N/A,,Clear,210,2013-07-06 03:55:00